Airfield :
LOGIN :

Register | Disclaimer

   EN    FR    IT 

 










Legend :    VFR   Marginal VFR   IFR   Intensive IFR   Very Intensive IFR
Visi :
Ceiling :
>= 8 km
>= 3000ft
5 to 8 km
1000 to 3000 ft
1500m to 5 km
500 to 1000 ft
800 to 1500m
200 to 500 ft
< 800m
< 200 ft
Symbols :   Thunderstorms  Fog  Heavy snow  Heavy precipitations  Wind > 20 kt
SIGMETs :     Misc.  Thunderstorms  Icing  Turbulence  Mountain Waves  Volcanic Ashes







- Airport Elevation : 1475 ft


LSZC - Buochs Stans

CURRENT METAR :
  • 202020Z AUTO 26004KT 220V300 CAVOK 17/06 Q1022

EXPIRED METARs :
  • 201950Z AUTO 24005KT 200V300 CAVOK 17/06 Q1022
  • 201920Z AUTO 25004KT 170V300 CAVOK 19/05 Q1022
  • 201850Z AUTO 28006KT CAVOK 18/06 Q1022
  • 201820Z AUTO 28005KT 250V330 CAVOK 21/05 Q1022
  • 201750Z AUTO 28005KT CAVOK 20/07 Q1022

TAF TAF LSZC
Valid from the 20 at 15:00 until the 21 at 00:00 UTC


201425Z 2015/2024 VRB03KT CAVOK
PROB30 2015/2018 9999 FEW060
No reported NOTAMs for that airfield.



MET'MAP, your aeronautical weather chart ! - Copyright ORBIFLY December 2007 - Disclaimer

ORBIFLY MET'MAP TEAM :

Programming & Development : Alexandra Zaïnal
Concept & Development : Baudouin d'Aumeries
Co-Development & Prog : Marc-Olivier Méhu
Technical & hardware support : Manuel Goepfert

Contact : metmap@orbifly.com




SOURCES & CREDITS :

   NOAA